World > North America > United States > Texas

Yard, Texas Regional Weather

Lat: 31.86N, Lon: 95.97W
Wx Zone: TXZ148Web Search

Helpful Tip: Abbreviated, 7 Day, 14 Day Forecasts. There is a weather forecast for every taste.

Feedback


°F Click to change Yard hourly weather to Imperial units.Click to change Yard hourly weather to Metric units. °C
Yard Weather Map
UTC Time: 4/10/2021, 18:38
Your Time:

Yard, TX Regional Weather

Expires:202104101900;;342396
ASUS44 KFWD 101815
RWRTX 
NORTH TEXAS HOURLY WEATHER ROUNDUP
NATIONAL WEATHER SERVICE FORT WORTH TX
100 PM CDT SAT APR 10 2021

NOTE: "FAIR" INDICATES FEW OR NO CLOUDS BELOW 12,000 FEET WITH NO
SIGNIFICANT WEATHER AND/OR OBSTRUCTIONS TO VISIBILITY.


TXZ095>097-106>112-122>126-135>138-148>153-164>167-101900-
EAST TEXAS
  
CITY           SKY/WX    TMP DP  RH WIND       PRES   REMARKS
PARIS          FAIR      63  42  46 NW21G28   29.88F                  
6HR MIN TEMP:  49; 6HR MAX TEMP:  63;                                

SULPHUR SPRNGS FAIR      64  42  44 NW10      29.93F                  
6HR MIN TEMP:  53; 6HR MAX TEMP:  64;                                

MOUNT PLEASANT FAIR      64  41  42 NW18      29.88F                  
6HR MIN TEMP:  52; 6HR MAX TEMP:  65;                                

GILMER         FAIR      65  41  41 W8G18     29.87F                  
6HR MIN TEMP:  52; 6HR MAX TEMP:  64;                                

MINEOLA        FAIR      66  43  42 N13G18    29.90F                  
TYLER          FAIR      68  39  34 N16G22    29.89F                  
6HR MIN TEMP:  53; 6HR MAX TEMP:  68;                                

LONGVIEW       FAIR      69  40  34 W16G24    29.85F                  
6HR MIN TEMP:  53; 6HR MAX TEMP:  69;                                

MARSHALL       FAIR      70  41  34 W12G18    29.87F                  
6HR MIN TEMP:  53; 6HR MAX TEMP:  70;                                

ATHENS         FAIR      66  37  34 NW9G20    29.89F                  
PALESTINE      FAIR      68  41  37 N12G18    29.90F                  
JACKSONVILLE   FAIR      67  45  44 N7G17     29.90F                  
HENDERSON      FAIR      67  40  36 W14G22    29.89S                  
6HR MIN TEMP:  54; 6HR MAX TEMP:  68;                                

CENTER         FAIR      72  50  46 NW6       29.85F                  
NACOGDOCHES    FAIR      70  49  47 NW13G22   29.87F                  
6HR MIN TEMP:  57; 6HR MAX TEMP:  70;                                

LUFKIN         FAIR      73  52  47 NW10      29.86F                  
6HR MIN TEMP:  60; 6HR MAX TEMP:  73;                                

$$

SUPPLEMENTAL OBSERVATIONS (NWS FORT WORTH AREA)
  
CITY           SKY/WX    TMP DP  RH WIND       PRES   REMARKS
CADDO GRASSLND   N/A     63  39  42 NW9G21      N/A                   
LBJ GRASSLAND    N/A     64  32  29 NW10G18     N/A                   
POSSUM KINGDOM   N/A     66  30  26 NW10        N/A                   
GRANBURY         N/A     68  32  26 NW15G22     N/A         

SKY/WX - Weather  TMP - Temperature  DP - Dew Point  RH - Relative Humidity
WIND - Wind Direction/Speed PRES - Barometric Pressure VSB - Visibility
WCI - Wind Chill Index E13G22 Wind - East Wind 13 mph/Gusts of 22 mph